Wind_Speed
34 34 36 36 37 39 41 42 43 45 48 50 52 54 55 55 57 57 57 58 59 61 64 67 69 72 71 67 62 62 58 52
41 40 40 40 42 43 45 46 48 50 51 51 52 56 57 57 56 58 60 61 62 63 65 63 61 61 60 56 48 48 49 47
46 46 46 47 47 47 48 50 53 54 55 56 58 59 59 62 59 60 60 61 61 59 57 53 50 48 44 41 40 43 48 50
50 51 50 50 51 52 53 53 55 57 57 58 60 61 60 61 64 64 58 55 53 54 51 47 43 40 38 39 39 42 43 45
53 54 53 53 55 55 53 53 55 57 59 60 60 60 60 61 59 55 54 54 53 48 43 41 42 47 44 41 42 43 42 40
56 56 57 57 57 56 55 56 57 57 57 57 58 59 59 55 52 50 49 46 46 46 46 45 43 41 41 41 40 47 46 42
57 59 58 57 54 53 55 57 57 56 54 54 53 54 54 51 51 48 46 42 50 53 52 49 48 46 49 49 45 49 46 44
58 56 53 52 55 56 55 53 54 54 52 54 54 50 50 51 51 48 48 55 60 59 53 48 49 53 47 47 48 47 46 43
57 56 57 54 52 51 45 46 49 50 51 52 48 51 48 51 49 58 61 63 60 58 53 52 48 48 46 44 47 45 48 46
56 55 55 48 45 46 45 46 46 49 47 45 43 48 48 49 56 59 59 53 50 52 49 47 43 43 40 37 38 38 37 41
54 53 51 47 43 42 43 44 41 44 42 44 47 48 49 50 46 44 43 40 43 44 46 44 38 38 40 42 44 43 46 46
52 50 47 46 47 45 42 45 47 45 44 44 47 46 47 47 45 42 44 42 44 44 46 49 50 50 45 43 44 46 49 50
50 50 51 49 47 45 46 47 49 44 42 44 44 42 41 43 44 43 43 42 44 45 45 47 48 46 45 46 50 51 49 48
52 52 53 53 50 44 47 43 40 37 41 44 47 44 47 45 42 43 43 42 43 45 46 47 47 46 46 47 48 46 43 42
55 52 52 50 47 45 45 43 42 45 46 48 44 45 41 39 42 44 43 45 49 46 45 44 43 43 44 44 43 42 40 38
43 45 50 44 48 48 41 44 48 48 44 42 42 39 41 43 41 37 43 44 44 43 43 44 44 45 42 40 39 39 37 35
42 46 49 43 38 39 44 46 43 42 40 41 41 42 40 37 39 40 40 39 41 43 44 46 45 39 38 37 35 34 34 35
46 36 30 30 30 32 34 35 37 39 40 40 41 36 36 37 38 37 38 40 42 45 46 40 37 37 34 32 32 33 35 36
32 31 31 32 33 36 37 39 39 39 39 36 35 34 33 36 37 38 39 40 42 39 37 36 34 31 31 31 31 31 30 29
Wind_Direction
276 278 280 282 283 282 282 280 278 279 280 280 281 282 284 286 289 288 288 288 288 290 294 297 295 294 293 294 294 293 293 287
279 279 281 282 283 284 283 283 282 280 279 279 281 282 285 289 291 293 294 296 298 299 300 301 301 299 298 294 288 286 286 283
278 279 281 282 281 281 283 283 284 285 285 286 288 290 293 293 293 294 295 298 298 298 298 298 294 293 289 284 283 278 272 269
278 278 280 281 282 282 283 285 285 286 286 288 290 290 290 292 295 295 294 294 295 297 299 296 294 289 282 286 289 287 284 281
279 281 282 282 283 284 284 283 283 284 286 286 288 288 289 291 293 292 293 295 294 296 293 294 293 293 280 283 284 289 285 285
279 281 282 283 283 283 283 281 281 282 283 284 285 288 290 291 291 290 292 295 297 297 293 292 290 287 286 287 285 286 286 283
275 277 279 280 280 280 280 281 281 281 281 285 284 285 288 290 290 291 291 293 299 300 290 292 287 286 287 288 280 283 285 284
277 278 276 273 274 277 278 282 282 284 283 282 284 286 287 286 286 287 290 294 295 299 297 287 284 286 287 285 286 284 286 284
278 277 277 278 279 282 283 283 282 278 277 276 279 279 280 283 289 292 290 290 290 292 292 290 287 286 282 282 282 281 280 282
275 278 280 285 286 285 285 282 279 281 276 279 283 291 296 293 288 287 290 292 294 295 295 290 285 282 280 281 280 280 281 282
278 281 283 285 279 280 284 280 276 271 281 287 284 290 291 291 290 292 293 292 295 295 294 283 280 279 287 289 289 290 284 282
283 287 288 286 286 286 280 273 273 277 286 286 286 288 288 290 292 296 298 298 296 288 285 282 296 299 296 290 284 281 281 282
284 288 289 289 286 284 269 269 281 279 284 286 285 288 291 292 295 294 295 294 292 293 294 296 295 288 288 285 282 283 283 284
286 288 288 288 289 276 277 279 281 284 284 281 282 285 288 293 290 292 295 291 296 296 295 294 295 294 293 290 288 285 285 284
283 283 281 275 275 275 290 285 276 274 274 277 283 292 290 289 292 296 294 287 295 296 295 295 294 292 290 288 288 287 286 284
274 277 270 263 279 290 285 269 269 272 278 288 288 290 290 292 294 288 284 290 294 295 298 299 296 294 292 290 288 285 282 279
255 277 287 298 292 278 267 267 274 280 286 283 286 291 292 291 289 291 292 293 294 300 301 298 296 294 294 292 289 284 281 278
293 292 284 277 276 271 269 276 280 280 280 285 289 286 289 291 292 294 294 295 299 303 300 298 296 297 294 292 289 287 286 286
285 278 275 275 273 273 274 275 278 279 283 283 282 282 286 293 294 297 299 301 303 302 300 301 298 294 294 294 294 293 292 292
Height
5790 5790 5789 5789 5788 5786 5785 5783 5782 5780 5778 5776 5774 5771 5770 5768 5766 5764 5761 5758 5756 5753 5750 5747 5745 5742 5739 5736 5734 5734 5733 5733
5782 5782 5781 5780 5780 5779 5777 5774 5773 5771 5768 5767 5765 5762 5759 5756 5752 5749 5747 5743 5740 5738 5734 5732 5729 5727 5725 5723 5719 5717 5717 5718
5772 5771 5770 5770 5769 5768 5767 5766 5763 5760 5757 5753 5750 5748 5746 5743 5739 5736 5734 5732 5729 5725 5721 5718 5715 5712 5710 5708 5707 5704 5700 5701
5760 5760 5759 5758 5758 5757 5755 5752 5750 5747 5743 5740 5738 5735 5732 5729 5728 5725 5721 5717 5713 5710 5708 5705 5703 5700 5698 5697 5695 5692 5690 5687
5749 5749 5747 5746 5745 5744 5742 5739 5736 5733 5730 5728 5725 5722 5719 5716 5714 5711 5708 5704 5700 5698 5696 5694 5692 5689 5687 5685 5683 5681 5678 5675
5736 5734 5732 5731 5728 5727 5726 5724 5721 5719 5716 5714 5712 5709 5707 5704 5700 5697 5694 5692 5689 5687 5685 5682 5679 5676 5675 5673 5671 5668 5666 5663
5726 5723 5719 5717 5715 5713 5711 5709 5708 5706 5704 5702 5699 5697 5694 5691 5687 5684 5683 5680 5677 5674 5672 5670 5667 5664 5663 5661 5658 5655 5652 5651
5712 5711 5708 5705 5702 5700 5697 5696 5695 5694 5692 5689 5687 5685 5682 5679 5676 5673 5671 5669 5666 5661 5658 5656 5654 5651 5648 5646 5644 5641 5638 5636
5695 5694 5692 5690 5686 5685 5685 5685 5683 5681 5679 5677 5676 5673 5669 5667 5665 5662 5658 5655 5651 5649 5645 5641 5640 5637 5633 5631 5630 5627 5626 5623
5680 5679 5678 5676 5674 5672 5671 5669 5667 5665 5664 5665 5663 5660 5658 5656 5653 5649 5645 5641 5638 5635 5632 5630 5626 5624 5621 5618 5616 5614 5611 5610
5666 5665 5663 5661 5660 5659 5658 5655 5654 5653 5651 5652 5651 5649 5646 5642 5639 5637 5634 5629 5626 5624 5621 5619 5615 5611 5609 5607 5604 5601 5599 5596
5654 5652 5649 5647 5647 5646 5645 5645 5644 5642 5641 5640 5639 5636 5633 5630 5627 5624 5621 5618 5616 5612 5610 5606 5602 5598 5595 5592 5590 5587 5585 5582
5641 5638 5636 5634 5634 5634 5634 5633 5631 5630 5629 5628 5626 5624 5620 5618 5615 5613 5609 5606 5604 5601 5597 5593 5590 5585 5581 5578 5576 5574 5571 5568
5630 5629 5625 5623 5622 5622 5622 5620 5619 5617 5616 5616 5615 5612 5609 5607 5604 5601 5598 5594 5591 5587 5584 5580 5576 5572 5569 5565 5563 5560 5557 5556
5619 5617 5616 5615 5613 5613 5611 5609 5607 5606 5605 5604 5602 5601 5597 5595 5592 5589 5586 5582 5579 5575 5571 5567 5563 5559 5556 5553 5549 5547 5545 5544
5607 5606 5605 5603 5601 5600 5599 5596 5594 5593 5592 5592 5590 5588 5586 5583 5581 5577 5574 5570 5567 5564 5559 5555 5552 5548 5544 5541 5538 5536 5534 5532
5592 5590 5590 5589 5589 5588 5585 5583 5582 5582 5582 5581 5579 5578 5574 5572 5569 5567 5563 5559 5557 5553 5548 5544 5540 5536 5533 5530 5527 5525 5524 5522
5579 5578 5578 5579 5578 5577 5575 5574 5573 5573 5572 5570 5568 5566 5564 5562 5559 5555 5551 5549 5546 5542 5536 5532 5529 5527 5524 5521 5519 5516 5514 5512
5567 5567 5567 5567 5566 5565 5564 5564 5563 5562 5562 5560 5558 5556 5554 5552 5549 5545 5542 5540 5536 5531 5527 5524 5521 5519 5516 5513 5510 5508 5505 5503